"Pseudo-MPEC" for RFD0044

Created 2023 Dec 1 12:22:07 UT using Find_Orb

Click here for an explanation of pseudo-MPECs

 
 Astrometry: 
     RFD0044*5C2023 11 11.34606505 17 49.430+20 26 10.22   ~BBCM       VNEOCPU94
     RFD0044 5C2023 11 11.34795705 17 49.501+20 26 11.45   ~BBCM 21.0 GVNEOCPU94
     RFD0044 5C2023 11 11.35364605 17 49.655+20 26 15.21   ~BBCM 21.0 GVNEOCPU94
     RFD0044 5C2023 11 11.36311305 17 49.967+20 26 21.73   ~BBCM 21.4 GVNEOCPU94
     RFD0044 5C2023 11 11.36311905 17 49.892+20 26 21.70   ~BBCM       VNEOCPU94

Station data:
(U94) iTelescope Observatory, Beryl Junction  (N37.737780 W113.697500)
   US/Utah.  Observer F. D. Romanov. 0.51-m f/4.5 Corrected Dall-Kirkham +
   CCD0.51-m f/6.8 astrograph + f/4.5 focal reducer + CCD.

Orbital elements:  RFD0044
   Perihelion 2023 Oct 9.18081 +/- 41.3 TT =  4:20:21 (JD 2460226.68081)
Epoch 2023 Nov 11.0 TT = JDT 2460259.5   Earth MOID: 0.2436   Ju: 0.0386
M   3.02077980 +/- 28               Ma: 0.0067                   AutoNEOCP
n   0.09204309 +/- 0.226            Peri.  316.40882 +/- 110
a   4.85819844 +/- 7.94             Node    70.07863 +/- 28
e   0.7456104 +/- 0.252             Incl.    3.15451 +/- 3.6
P  10.71                   H 21.92  G  0.15   U 11.7  SR
q 1.23587512 +/- 0.509    Q 8.48052177 +/- 201            (J2000 ecliptic)
From 5 observations 2023 Nov. 11 (24.6 min); mean residual 0".24
Residuals in arcseconds: 
231111 U94  .10-  .05+    231111 U94  .03-  .10-    231111 U94  .53-  .02-    
231111 U94  .12+  .00     231111 U94  .53+  .02+    

Ephemerides (geocentric):
Date (UTC) HH   RA             Dec           delta  r     elong  mag " sig PA
---- --------  ------------   ------------  ------ ------ -----  --- --------
2023 12 01 12  05 19 29.646   +23 32 00.44  .44114 1.4205 168.0 21.5  75d  79
2023 12 01 13  05 19 28.955   +23 32 18.39  .44136 1.4208 168.0 21.5  75d  79
2023 12 01 14  05 19 28.261   +23 32 36.31  .44158 1.4210 168.0 21.5  75d  79
2023 12 01 15  05 19 27.566   +23 32 54.21  .44181 1.4213 168.1 21.5  75d  79
2023 12 01 16  05 19 26.868   +23 33 12.08  .44203 1.4216 168.1 21.5  75d  79
2023 12 01 17  05 19 26.169   +23 33 29.94  .44225 1.4218 168.2 21.5  75d  79
2023 12 01 18  05 19 25.468   +23 33 47.77  .44247 1.4221 168.2 21.5  75d  79
2023 12 01 19  05 19 24.765   +23 34 05.58  .44269 1.4224 168.3 21.5  75d  79
2023 12 01 20  05 19 24.060   +23 34 23.37  .44292 1.4226 168.3 21.5  75d  79
2023 12 01 21  05 19 23.354   +23 34 41.14  .44314 1.4229 168.4 21.5  75d  79
2023 12 01 22  05 19 22.646   +23 34 58.88  .44336 1.4231 168.4 21.5  75d  79
2023 12 01 23  05 19 21.935   +23 35 16.61  .44359 1.4234 168.4 21.5  75d  79
2023 12 02 00  05 19 21.224   +23 35 34.31  .44381 1.4237 168.5 21.5  75d  79
2023 12 02 01  05 19 20.510   +23 35 51.99  .44404 1.4239 168.5 21.5  75d  79
2023 12 02 02  05 19 19.795   +23 36 09.65  .44426 1.4242 168.6 21.5  75d  79
2023 12 02 03  05 19 19.078   +23 36 27.28  .44448 1.4245 168.6 21.5  75d  79
2023 12 02 04  05 19 18.359   +23 36 44.90  .44471 1.4247 168.7 21.5  75d  79
2023 12 02 05  05 19 17.638   +23 37 02.49  .44493 1.4250 168.7 21.5  75d  79
2023 12 02 06  05 19 16.916   +23 37 20.06  .44516 1.4253 168.8 21.5  75d  79
2023 12 02 07  05 19 16.192   +23 37 37.61  .44539 1.4255 168.8 21.5  75d  79
2023 12 02 08  05 19 15.466   +23 37 55.14  .44561 1.4258 168.8 21.5  75d  79
2023 12 02 09  05 19 14.739   +23 38 12.64  .44584 1.4260 168.9 21.5  75d  79
2023 12 02 10  05 19 14.010   +23 38 30.12  .44607 1.4263 168.9 21.5  75d  79
2023 12 02 11  05 19 13.280   +23 38 47.58  .44629 1.4266 169.0 21.5  75d  79
2023 12 02 12  05 19 12.547   +23 39 05.02  .44652 1.4268 169.0 21.5  75d  79
2023 12 02 13  05 19 11.814   +23 39 22.44  .44675 1.4271 169.1 21.5  75d  79
2023 12 02 14  05 19 11.078   +23 39 39.84  .44697 1.4274 169.1 21.5  75d  79
2023 12 02 15  05 19 10.341   +23 39 57.21  .44720 1.4276 169.2 21.5  75d  79
2023 12 02 16  05 19 09.602   +23 40 14.56  .44743 1.4279 169.2 21.5  75d  79
2023 12 02 17  05 19 08.862   +23 40 31.89  .44766 1.4282 169.2 21.5  75d  79
2023 12 02 18  05 19 08.120   +23 40 49.20  .44789 1.4284 169.3 21.5  75d  79
2023 12 02 19  05 19 07.377   +23 41 06.49  .44812 1.4287 169.3 21.5  75d  79
2023 12 02 20  05 19 06.632   +23 41 23.75  .44835 1.4290 169.4 21.5  75d  79
2023 12 02 21  05 19 05.886   +23 41 41.00  .44858 1.4292 169.4 21.5  76d  79
2023 12 02 22  05 19 05.138   +23 41 58.22  .44881 1.4295 169.5 21.5  76d  79
2023 12 02 23  05 19 04.388   +23 42 15.42  .44904 1.4298 169.5 21.5  76d  79
2023 12 03 00  05 19 03.637   +23 42 32.59  .44927 1.4300 169.6 21.5  76d  79
2023 12 03 01  05 19 02.885   +23 42 49.75  .44950 1.4303 169.6 21.5  76d  79
2023 12 03 02  05 19 02.131   +23 43 06.88  .44973 1.4306 169.6 21.5  76d  79
2023 12 03 03  05 19 01.375   +23 43 24.00  .44996 1.4308 169.7 21.5  76d  79
2023 12 03 04  05 19 00.618   +23 43 41.09  .45019 1.4311 169.7 21.5  76d  79
2023 12 03 05  05 18 59.860   +23 43 58.16  .45042 1.4314 169.8 21.5  76d  79
2023 12 03 06  05 18 59.100   +23 44 15.20  .45065 1.4316 169.8 21.5  76d  79
2023 12 03 07  05 18 58.339   +23 44 32.23  .45089 1.4319 169.9 21.5  76d  79
2023 12 03 08  05 18 57.576   +23 44 49.23  .45112 1.4322 169.9 21.5  76d  79
2023 12 03 09  05 18 56.812   +23 45 06.21  .45135 1.4324 170.0 21.5  76d  79
2023 12 03 10  05 18 56.047   +23 45 23.17  .45159 1.4327 170.0 21.5  76d  79
2023 12 03 11  05 18 55.280   +23 45 40.11  .45182 1.4330 170.0 21.5  76d  79